Location: Casco Volunteer Fire Department
(44.5576°N, 87.6146°W)
Time: 00:19:02
(UTC+00:00)

BlueWalker 3 - Pass Details

Date: 14 March 2026
Orbit: 449 x 457 km, 53.2° (Epoch: 14 April)

Event Time Altitude Azimuth Distance (km) Brightness Sun altitude
Exits shadow 10:31:20 21° 319° (NW) 1,069 3.3 -17.3°
Maximum altitude 10:33:27 51° 28° (NNE) 583 2.5 -16.9°
Drops below altitude 10° 10:36:57 10° 106° (ESE) 1,594 5.4 -16.3°
Sets 10:39:07 0° 111° (ESE) 2,464 6.4 -16.0°
